SWN324 EKCH-EKVG

Flight info

Callsign SWN324
Flight time 1h 28m
Altitude 32000
Route GOLGA DCT AMSEV DCT ZOL DCT GUNPA/M074F320 DCT ROBUR
Aircraft B738/M-SDE2E3FGHIRWXY/LB1

Departure

Time 2026-05-08 13:33
Airport Copenhagen Kastrup Airport (EKCH)

Arrival

Time 2026-05-08 15:01
Airport Vágar Airport (EKVG)
Time Latitude Longitude Altitude Speed Heading
2026-05-08 13:04 55.61952 12.67092 16 ft 0 kts 79°
2026-05-08 13:22 55.61948 12.67061 17 ft 4 kts 79°
2026-05-08 13:22 55.61944 12.67022 18 ft 2 kts 79°
2026-05-08 13:22 55.61942 12.66978 19 ft 4 kts 100°
2026-05-08 13:23 55.61952 12.66945 18 ft 4 kts 163°
2026-05-08 13:23 55.61956 12.66942 16 ft 1 kts 169°
2026-05-08 13:26 55.61946 12.66945 17 ft 3 kts 169°
2026-05-08 13:26 55.61920 12.66953 16 ft 4 kts 175°
2026-05-08 13:27 55.61891 12.66897 16 ft 11 kts 248°
2026-05-08 13:27 55.61872 12.66740 16 ft 13 kts 258°
2026-05-08 13:27 55.61855 12.66590 16 ft 13 kts 261°
2026-05-08 13:27 55.61828 12.66444 16 ft 12 kts 222°
2026-05-08 13:28 55.61748 12.66394 18 ft 12 kts 200°
2026-05-08 13:28 55.61677 12.66312 16 ft 14 kts 229°
2026-05-08 13:28 55.61639 12.66142 18 ft 15 kts 265°
2026-05-08 13:28 55.61661 12.65964 19 ft 14 kts 294°
2026-05-08 13:29 55.61710 12.65838 19 ft 12 kts 293°
2026-05-08 13:29 55.61750 12.65710 18 ft 13 kts 302°
2026-05-08 13:29 55.61807 12.65557 18 ft 17 kts 306°
2026-05-08 13:29 55.61874 12.65375 14 ft 21 kts 304°
2026-05-08 13:30 55.61960 12.65140 17 ft 23 kts 302°
2026-05-08 13:30 55.61969 12.64905 16 ft 22 kts 219°
2026-05-08 13:30 55.61844 12.64763 17 ft 21 kts 213°
2026-05-08 13:30 55.61723 12.64624 16 ft 20 kts 213°
2026-05-08 13:31 55.61650 12.64431 16 ft 20 kts 268°
2026-05-08 13:31 55.61641 12.64193 16 ft 19 kts 265°
2026-05-08 13:31 55.61583 12.64008 16 ft 9 kts 220°
2026-05-08 13:31 55.61554 12.63965 16 ft 5 kts 220°
2026-05-08 13:32 55.61527 12.63925 16 ft 5 kts 221°
2026-05-08 13:32 55.61501 12.63883 16 ft 6 kts 222°
2026-05-08 13:32 55.61414 12.63748 16 ft 43 kts 221°
2026-05-08 13:32 55.61006 12.63116 19 ft 111 kts 221°
2026-05-08 13:33 55.60276 12.61992 70 ft 161 kts 221°
2026-05-08 13:33 55.59411 12.60650 754 ft 169 kts 218°
2026-05-08 13:33 55.58500 12.59272 1480 ft 179 kts 214°
2026-05-08 13:33 55.57503 12.57855 2122 ft 194 kts 216°
2026-05-08 13:34 55.56436 12.56091 2355 ft 226 kts 231°
2026-05-08 13:34 55.55976 12.53301 2575 ft 256 kts 271°
2026-05-08 13:34 55.56245 12.50079 3060 ft 272 kts 281°
2026-05-08 13:34 55.56580 12.46747 3903 ft 276 kts 280°
2026-05-08 13:35 55.56900 12.43399 4788 ft 279 kts 283°
2026-05-08 13:35 55.57700 12.40350 5568 ft 278 kts 314°
2026-05-08 13:35 55.59064 12.37892 6412 ft 281 kts 319°
2026-05-08 13:35 55.60492 12.35479 7211 ft 284 kts 318°
2026-05-08 13:36 55.61920 12.33066 8050 ft 288 kts 317°
2026-05-08 13:36 55.63383 12.30569 8724 ft 295 kts 316°
2026-05-08 13:36 55.64864 12.28013 9549 ft 298 kts 315°
2026-05-08 13:36 55.66352 12.25415 10299 ft 303 kts 315°
2026-05-08 13:37 55.67880 12.22727 10753 ft 319 kts 315°
2026-05-08 13:37 55.69504 12.19852 10950 ft 342 kts 315°
2026-05-08 13:37 55.71212 12.16812 11437 ft 353 kts 314°
2026-05-08 13:37 55.72935 12.13737 12124 ft 357 kts 314°
2026-05-08 13:38 55.74689 12.10595 12886 ft 360 kts 314°
2026-05-08 13:38 55.76440 12.07452 13812 ft 357 kts 314°
2026-05-08 13:38 55.78186 12.04305 14647 ft 356 kts 314°
2026-05-08 13:38 55.79945 12.01130 15187 ft 363 kts 314°
2026-05-08 13:39 55.81728 11.97910 15786 ft 368 kts 314°
2026-05-08 13:39 55.83524 11.94665 16524 ft 368 kts 314°
2026-05-08 13:39 55.85321 11.91410 17146 ft 372 kts 314°
2026-05-08 13:39 55.87151 11.88091 17808 ft 375 kts 314°
2026-05-08 13:40 55.88984 11.84760 18458 ft 378 kts 314°
2026-05-08 13:40 55.90831 11.81400 18998 ft 381 kts 314°
2026-05-08 13:40 55.92690 11.78012 19517 ft 385 kts 313°
2026-05-08 13:40 55.94574 11.74573 20010 ft 389 kts 313°
2026-05-08 13:41 55.96471 11.71107 20547 ft 392 kts 313°
2026-05-08 13:41 55.98389 11.67596 21059 ft 396 kts 313°
2026-05-08 13:41 56.00320 11.64054 21614 ft 398 kts 313°
2026-05-08 13:41 56.02255 11.60502 22099 ft 401 kts 313°
2026-05-08 13:42 56.04214 11.56899 22594 ft 405 kts 313°
2026-05-08 13:42 56.06179 11.53283 23076 ft 408 kts 313°
2026-05-08 13:42 56.08169 11.49613 23562 ft 411 kts 313°
2026-05-08 13:42 56.10137 11.45979 23991 ft 414 kts 313°
2026-05-08 13:43 56.12159 11.42237 24396 ft 417 kts 313°
2026-05-08 13:43 56.14169 11.38513 24809 ft 419 kts 313°
2026-05-08 13:43 56.16206 11.34731 25184 ft 422 kts 313°
2026-05-08 13:43 56.18248 11.30936 25553 ft 424 kts 313°
2026-05-08 13:44 56.20310 11.27095 25930 ft 427 kts 313°
2026-05-08 13:44 56.22380 11.23234 26295 ft 430 kts 313°
2026-05-08 13:44 56.24459 11.19349 26664 ft 432 kts 313°
2026-05-08 13:44 56.26554 11.15427 27019 ft 435 kts 313°
2026-05-08 13:45 56.28654 11.11490 27366 ft 437 kts 313°
2026-05-08 13:45 56.30760 11.07535 27701 ft 440 kts 313°
2026-05-08 13:45 56.32880 11.03548 28085 ft 441 kts 313°
2026-05-08 13:45 56.34999 10.99555 28570 ft 439 kts 313°
2026-05-08 13:46 56.37079 10.95630 29027 ft 438 kts 313°
2026-05-08 13:46 56.39213 10.91595 29412 ft 439 kts 313°
2026-05-08 13:46 56.41296 10.87649 29837 ft 439 kts 313°
2026-05-08 13:46 56.43425 10.83610 30313 ft 438 kts 313°
2026-05-08 13:47 56.45497 10.79671 30699 ft 437 kts 313°
2026-05-08 13:47 56.47587 10.75692 31063 ft 436 kts 313°
2026-05-08 13:47 56.49680 10.71700 31434 ft 436 kts 313°
2026-05-08 13:47 56.51758 10.67731 31793 ft 434 kts 313°
2026-05-08 13:48 56.53836 10.63754 32149 ft 434 kts 313°
2026-05-08 13:48 56.55917 10.59765 32258 ft 438 kts 313°
2026-05-08 13:48 56.60105 10.51716 32257 ft 438 kts 313°
2026-05-08 13:49 56.64257 10.43708 32258 ft 433 kts 312°
2026-05-08 13:49 56.68392 10.35706 32260 ft 435 kts 312°
2026-05-08 13:50 56.72534 10.27662 32257 ft 436 kts 312°
2026-05-08 13:50 56.76681 10.19582 32258 ft 438 kts 312°
2026-05-08 13:51 56.80823 10.11481 32257 ft 440 kts 312°
2026-05-08 13:51 56.84998 10.03290 32251 ft 440 kts 312°
2026-05-08 13:52 56.89169 9.95073 32258 ft 440 kts 311°
2026-05-08 13:52 56.93328 9.86856 32247 ft 440 kts 311°
2026-05-08 13:53 56.97477 9.78630 32239 ft 438 kts 311°
2026-05-08 13:53 57.01608 9.70412 32223 ft 437 kts 311°
2026-05-08 13:54 57.05723 9.62194 32239 ft 436 kts 311°
2026-05-08 13:54 57.09823 9.53977 32237 ft 436 kts 311°
2026-05-08 13:55 57.13885 9.45803 32260 ft 436 kts 310°
2026-05-08 13:56 57.20139 9.33165 32261 ft 453 kts 310°
2026-05-08 13:56 57.23700 9.25940 32257 ft 462 kts 310°
2026-05-08 13:57 57.28072 9.17040 32256 ft 472 kts 310°
2026-05-08 13:57 57.35732 9.01367 32239 ft 483 kts 310°
2026-05-08 13:58 57.44723 8.82835 32240 ft 480 kts 309°
2026-05-08 13:58 57.53545 8.64509 32248 ft 472 kts 309°
2026-05-08 13:59 57.62228 8.46322 32268 ft 470 kts 309°
2026-05-08 13:59 57.70904 8.28006 32270 ft 479 kts 309°
2026-05-08 14:00 57.79747 8.09193 32253 ft 482 kts 309°
2026-05-08 14:00 57.88560 7.90297 32267 ft 476 kts 308°
2026-05-08 14:01 57.97152 7.71729 32246 ft 464 kts 308°
2026-05-08 14:01 58.05653 7.53192 32270 ft 472 kts 308°
2026-05-08 14:02 58.14297 7.34202 32271 ft 477 kts 308°
2026-05-08 14:02 58.22851 7.15269 32220 ft 468 kts 307°
2026-05-08 14:03 58.31239 6.96543 32232 ft 464 kts 307°
2026-05-08 14:03 58.39627 6.77656 32261 ft 471 kts 307°
2026-05-08 14:04 58.48068 6.58510 32229 ft 470 kts 307°
2026-05-08 14:04 58.56401 6.39452 32215 ft 468 kts 306°
2026-05-08 14:05 58.64721 6.20264 32236 ft 466 kts 306°
2026-05-08 14:05 58.72951 6.01130 32207 ft 463 kts 306°
2026-05-08 14:06 58.81127 5.81964 32210 ft 462 kts 306°
2026-05-08 14:06 58.89255 5.62753 32206 ft 461 kts 306°
2026-05-08 14:07 58.97354 5.43454 32202 ft 461 kts 305°
2026-05-08 14:07 59.05423 5.24064 32206 ft 461 kts 305°
2026-05-08 14:08 59.13412 5.04708 32227 ft 461 kts 304°
2026-05-08 14:08 59.21422 4.85144 32199 ft 460 kts 304°
2026-05-08 14:09 59.29373 4.65558 32196 ft 460 kts 304°
2026-05-08 14:09 59.37307 4.45848 32209 ft 460 kts 303°
2026-05-08 14:10 59.45201 4.26071 32162 ft 459 kts 303°
2026-05-08 14:10 59.52983 4.06411 32164 ft 458 kts 303°
2026-05-08 14:11 59.60795 3.86506 32180 ft 458 kts 302°
2026-05-08 14:11 59.68591 3.66473 32146 ft 458 kts 302°
2026-05-08 14:12 59.76338 3.46396 32139 ft 458 kts 302°
2026-05-08 14:12 59.84044 3.26250 32152 ft 458 kts 301°
2026-05-08 14:13 59.91729 3.05983 32118 ft 459 kts 301°
2026-05-08 14:13 59.99392 2.85601 32084 ft 459 kts 301°
2026-05-08 14:14 60.06959 2.65299 32107 ft 458 kts 300°
2026-05-08 14:14 60.14562 2.44719 32063 ft 457 kts 300°
2026-05-08 14:15 60.22098 2.24140 32052 ft 457 kts 300°
2026-05-08 14:15 60.29603 2.03463 32046 ft 457 kts 300°
2026-05-08 14:16 60.37026 1.82829 32031 ft 457 kts 299°
2026-05-08 14:16 60.44492 1.61892 32029 ft 455 kts 299°
2026-05-08 14:17 60.51826 1.41137 32011 ft 456 kts 299°
2026-05-08 14:17 60.59203 1.20072 32008 ft 457 kts 298°
2026-05-08 14:18 60.66541 0.98931 31988 ft 458 kts 298°
2026-05-08 14:18 60.73867 0.77630 31978 ft 458 kts 298°
2026-05-08 14:19 60.81157 0.56231 31961 ft 460 kts 298°
2026-05-08 14:19 60.88438 0.34669 31951 ft 460 kts 298°
2026-05-08 14:20 60.95640 0.13141 31939 ft 460 kts 297°
2026-05-08 14:20 61.01441 -0.08256 31960 ft 444 kts 281°
2026-05-08 14:21 61.03319 -0.20395 31930 ft 445 kts 281°
2026-05-08 14:21 61.05260 -0.32584 31934 ft 447 kts 282°
2026-05-08 14:22 61.07211 -0.44781 31929 ft 448 kts 282°
2026-05-08 14:22 61.09152 -0.56984 31912 ft 448 kts 281°
2026-05-08 14:23 61.11087 -0.69254 31904 ft 448 kts 281°
2026-05-08 14:23 61.13006 -0.81510 31912 ft 448 kts 281°
2026-05-08 14:24 61.14914 -0.93788 31896 ft 448 kts 281°
2026-05-08 14:24 61.16811 -1.06081 31898 ft 448 kts 281°
2026-05-08 14:25 61.18698 -1.18401 31891 ft 448 kts 281°
2026-05-08 14:25 61.20570 -1.30706 31891 ft 447 kts 281°
2026-05-08 14:26 61.22430 -1.43024 31896 ft 448 kts 281°
2026-05-08 14:26 61.24271 -1.55302 31879 ft 448 kts 281°
2026-05-08 14:27 61.26113 -1.67674 31857 ft 448 kts 281°
2026-05-08 14:27 61.27957 -1.80148 31857 ft 448 kts 281°
2026-05-08 14:28 61.29761 -1.92445 31858 ft 448 kts 281°
2026-05-08 14:28 61.31579 -2.04929 31850 ft 448 kts 281°
2026-05-08 14:29 61.33363 -2.17288 31855 ft 450 kts 281°
2026-05-08 14:29 61.35156 -2.29782 31839 ft 450 kts 281°
2026-05-08 14:30 61.36941 -2.42316 31833 ft 451 kts 281°
2026-05-08 14:30 61.38716 -2.54871 31821 ft 451 kts 281°
2026-05-08 14:31 61.40476 -2.67413 31811 ft 442 kts 281°
2026-05-08 14:31 61.41325 -2.73455 31804 ft 426 kts 280°
2026-05-08 14:31 61.42143 -2.79286 31800 ft 410 kts 280°
2026-05-08 14:32 61.43679 -2.90353 31791 ft 383 kts 280°
2026-05-08 14:32 61.44407 -2.95649 31570 ft 375 kts 280°
2026-05-08 14:32 61.45117 -3.00826 31350 ft 368 kts 279°
2026-05-08 14:32 61.45817 -3.05964 30981 ft 366 kts 279°
2026-05-08 14:33 61.46499 -3.10997 30670 ft 363 kts 279°
2026-05-08 14:33 61.47188 -3.16105 30336 ft 360 kts 279°
2026-05-08 14:33 61.47858 -3.21081 30003 ft 358 kts 278°
2026-05-08 14:33 61.48529 -3.26073 29625 ft 355 kts 278°
2026-05-08 14:34 61.49194 -3.31067 29239 ft 356 kts 278°
2026-05-08 14:34 61.49851 -3.36079 28880 ft 358 kts 278°
2026-05-08 14:34 61.50522 -3.41152 28522 ft 363 kts 278°
2026-05-08 14:34 61.51204 -3.46225 28139 ft 360 kts 278°
2026-05-08 14:35 61.51878 -3.51243 27781 ft 355 kts 278°
2026-05-08 14:35 61.52541 -3.56215 27465 ft 351 kts 279°
2026-05-08 14:35 61.53183 -3.61053 27067 ft 348 kts 278°
2026-05-08 14:35 61.53825 -3.65925 26722 ft 344 kts 278°
2026-05-08 14:36 61.54458 -3.70743 26372 ft 341 kts 278°
2026-05-08 14:36 61.55082 -3.75511 26026 ft 337 kts 278°
2026-05-08 14:36 61.55696 -3.80225 25674 ft 334 kts 278°
2026-05-08 14:36 61.56306 -3.84918 25349 ft 331 kts 278°
2026-05-08 14:37 61.56908 -3.89570 25058 ft 327 kts 278°
2026-05-08 14:37 61.57500 -3.94146 24767 ft 323 kts 277°
2026-05-08 14:37 61.58084 -3.98683 24444 ft 320 kts 277°
2026-05-08 14:37 61.58663 -4.03191 24131 ft 320 kts 278°
2026-05-08 14:38 61.59252 -4.07708 23824 ft 329 kts 278°
2026-05-08 14:38 61.59855 -4.12432 23493 ft 339 kts 278°
2026-05-08 14:38 61.60461 -4.17226 23092 ft 339 kts 277°
2026-05-08 14:38 61.61061 -4.22002 22706 ft 335 kts 277°
2026-05-08 14:39 61.61651 -4.26699 22399 ft 331 kts 278°
2026-05-08 14:39 61.62238 -4.31365 22026 ft 329 kts 279°
2026-05-08 14:39 61.62819 -4.35992 21691 ft 325 kts 279°
2026-05-08 14:39 61.63392 -4.40565 21363 ft 322 kts 279°
2026-05-08 14:40 61.63958 -4.45106 21037 ft 320 kts 279°
2026-05-08 14:40 61.64521 -4.49624 20702 ft 318 kts 279°
2026-05-08 14:40 61.65077 -4.54106 20392 ft 315 kts 279°
2026-05-08 14:40 61.65621 -4.58505 20060 ft 314 kts 279°
2026-05-08 14:41 61.66169 -4.62951 19744 ft 312 kts 279°
2026-05-08 14:41 61.66712 -4.67365 19421 ft 311 kts 279°
2026-05-08 14:41 61.67250 -4.71762 19107 ft 310 kts 279°
2026-05-08 14:41 61.67789 -4.76168 18788 ft 309 kts 279°
2026-05-08 14:42 61.68323 -4.80553 18481 ft 308 kts 279°
2026-05-08 14:42 61.68853 -4.84911 18165 ft 308 kts 280°
2026-05-08 14:42 61.69383 -4.89283 17825 ft 307 kts 280°
2026-05-08 14:42 61.69908 -4.93632 17506 ft 305 kts 280°
2026-05-08 14:43 61.70431 -4.97972 17194 ft 304 kts 281°
2026-05-08 14:43 61.70950 -5.02279 16864 ft 303 kts 281°
2026-05-08 14:43 61.71291 -5.05127 16677 ft 302 kts 281°
2026-05-08 14:43 61.71805 -5.09427 16359 ft 301 kts 281°
2026-05-08 14:44 61.72315 -5.13706 16030 ft 301 kts 281°
2026-05-08 14:44 61.72825 -5.17999 15734 ft 300 kts 281°
2026-05-08 14:44 61.73330 -5.22263 15417 ft 300 kts 281°
2026-05-08 14:44 61.73833 -5.26527 15115 ft 299 kts 281°
2026-05-08 14:45 61.74328 -5.30728 14812 ft 299 kts 281°
2026-05-08 14:45 61.74829 -5.34994 14506 ft 299 kts 281°
2026-05-08 14:45 61.75329 -5.39260 14191 ft 299 kts 281°
2026-05-08 14:45 61.75825 -5.43507 13888 ft 297 kts 281°
2026-05-08 14:46 61.76313 -5.47696 13564 ft 288 kts 281°
2026-05-08 14:46 61.76784 -5.51736 13266 ft 277 kts 280°
2026-05-08 14:46 61.77243 -5.55693 12988 ft 277 kts 280°
2026-05-08 14:46 61.77700 -5.59661 12696 ft 279 kts 280°
2026-05-08 14:47 61.78157 -5.63645 12393 ft 280 kts 280°
2026-05-08 14:47 61.78617 -5.67661 12098 ft 281 kts 280°
2026-05-08 14:47 61.79078 -5.71695 11801 ft 283 kts 280°
2026-05-08 14:47 61.79539 -5.75732 11531 ft 283 kts 281°
2026-05-08 14:48 61.79999 -5.79782 11228 ft 284 kts 281°
2026-05-08 14:48 61.80458 -5.83824 10899 ft 282 kts 282°
2026-05-08 14:48 61.80908 -5.87793 10598 ft 279 kts 281°
2026-05-08 14:48 61.81357 -5.91761 10302 ft 276 kts 281°
2026-05-08 14:49 61.81800 -5.95698 10005 ft 274 kts 281°
2026-05-08 14:49 61.82242 -5.99631 9830 ft 267 kts 281°
2026-05-08 14:49 61.82659 -6.03343 9706 ft 259 kts 281°
2026-05-08 14:49 61.83068 -6.07007 9369 ft 259 kts 281°
2026-05-08 14:50 61.83476 -6.10683 9101 ft 256 kts 281°
2026-05-08 14:50 61.83882 -6.14343 8818 ft 253 kts 281°
2026-05-08 14:50 61.84282 -6.17958 8539 ft 251 kts 281°
2026-05-08 14:50 61.84676 -6.21532 8300 ft 249 kts 281°
2026-05-08 14:51 61.85068 -6.25086 8036 ft 246 kts 281°
2026-05-08 14:51 61.85452 -6.28589 7783 ft 243 kts 281°
2026-05-08 14:51 61.85830 -6.32035 7592 ft 239 kts 281°
2026-05-08 14:51 61.86196 -6.35382 7501 ft 230 kts 281°
2026-05-08 14:52 61.86553 -6.38668 7273 ft 230 kts 282°
2026-05-08 14:52 61.87285 -6.45418 6793 ft 242 kts 283°
2026-05-08 14:52 61.87657 -6.48879 6620 ft 238 kts 284°
2026-05-08 14:53 61.88024 -6.52274 6462 ft 232 kts 284°
2026-05-08 14:53 61.88380 -6.55574 6165 ft 231 kts 284°
2026-05-08 14:53 61.88835 -6.58815 5985 ft 225 kts 294°
2026-05-08 14:53 61.89545 -6.61690 5853 ft 218 kts 299°
2026-05-08 14:54 61.90288 -6.64455 5701 ft 212 kts 299°
2026-05-08 14:54 61.91001 -6.67115 5630 ft 203 kts 299°
2026-05-08 14:54 61.91683 -6.69695 5528 ft 195 kts 298°
2026-05-08 14:54 61.92342 -6.72207 5434 ft 196 kts 298°
2026-05-08 14:55 61.93011 -6.74783 5275 ft 198 kts 298°
2026-05-08 14:55 61.93686 -6.77401 4994 ft 203 kts 298°
2026-05-08 14:55 61.94347 -6.79976 4775 ft 200 kts 298°
2026-05-08 14:55 61.95017 -6.82595 4513 ft 199 kts 298°
2026-05-08 14:56 61.95665 -6.85135 4263 ft 197 kts 298°
2026-05-08 14:56 61.96313 -6.87680 4063 ft 193 kts 298°
2026-05-08 14:56 61.96936 -6.90134 4000 ft 186 kts 298°
2026-05-08 14:56 61.97557 -6.92517 4003 ft 183 kts 301°
2026-05-08 14:57 61.98217 -6.94831 4009 ft 181 kts 300°
2026-05-08 14:57 61.98824 -6.97158 3851 ft 177 kts 300°
2026-05-08 14:57 61.99404 -6.99427 3580 ft 169 kts 302°
2026-05-08 14:57 61.99955 -7.01583 3312 ft 165 kts 298°
2026-05-08 14:58 62.00446 -7.03703 3053 ft 153 kts 299°
2026-05-08 14:58 62.00912 -7.05631 2824 ft 140 kts 300°
2026-05-08 14:58 62.01339 -7.07377 2596 ft 128 kts 300°
2026-05-08 14:58 62.01751 -7.09049 2392 ft 128 kts 300°
2026-05-08 14:59 62.02150 -7.10670 2191 ft 124 kts 300°
2026-05-08 14:59 62.02958 -7.13947 1785 ft 126 kts 300°
2026-05-08 14:59 62.03357 -7.15572 1565 ft 124 kts 299°
2026-05-08 15:00 62.03750 -7.17198 1388 ft 126 kts 300°
2026-05-08 15:00 62.04166 -7.18845 1171 ft 128 kts 300°
2026-05-08 15:00 62.04592 -7.20564 967 ft 132 kts 298°
2026-05-08 15:00 62.05018 -7.22297 766 ft 130 kts 298°
2026-05-08 15:01 62.05443 -7.24017 519 ft 132 kts 298°
2026-05-08 15:01 62.05864 -7.25708 328 ft 127 kts 297°
2026-05-08 15:01 62.06242 -7.27246 280 ft 91 kts 296°
2026-05-08 15:01 62.06368 -7.27757 296 ft 0 kts 298°
2026-05-08 15:02 62.06370 -7.27764 296 ft 1 kts 298°
2026-05-08 15:02 62.06374 -7.27783 296 ft 3 kts 298°
2026-05-08 15:02 62.06393 -7.27856 294 ft 9 kts 298°
2026-05-08 15:02 62.06424 -7.27982 293 ft 10 kts 297°
2026-05-08 15:03 62.06461 -7.28116 291 ft 11 kts 310°
2026-05-08 15:03 62.06533 -7.28117 286 ft 11 kts 18°
2026-05-08 15:03 62.06603 -7.28078 288 ft 11 kts 21°
2026-05-08 15:03 62.06643 -7.28000 288 ft 4 kts 81°
2026-05-08 15:04 62.06639 -7.27933 288 ft 5 kts 99°
2026-05-08 15:04 62.06660 -7.27875 288 ft 5 kts 31°
2026-05-08 15:04 62.06667 -7.27868 288 ft 0 kts 29°
2026-05-08 15:04 62.06669 -7.27865 288 ft 1 kts 30°
2026-05-08 15:05 62.06672 -7.27862 288 ft 0 kts 29°